Camp Pendleton, CA

7:29 AM PDT on September 22, 2017 (GMT -0700)
Camp Pendleton Marine Corps Air Station

Weather History for KNFG - January, 2014

Change the Weather History Date:

Thursday, January 30, 2014

  Actual Average Record
Temperature  
Mean Temperature 56 °F -  
Max Temperature 61 °F 65 °F 75 °F (2017)
Min Temperature 51 °F 38 °F 39 °F (2016)
Degree Days  
Heating Degree Days 9    
Growing Degree Days 6 (Base 50)    
Moisture  
Dew Point 51 °F    
Average Humidity 81    
Maximum Humidity 87    
Minimum Humidity 72    
Precipitation  
Precipitation 0.03 in - - ()
Sea Level Pressure  
Sea Level Pressure 29.94 in    
Wind  
Wind Speed 4 mph (South)    
Max Wind Speed 8 mph    
Max Gust Speed -    
Visibility 4 miles    
Events Rain    
Averages and records for this station are not official NWS values.
T = Trace of Precipitation, MM = Missing Value Source: NWS Daily Summary

Daily Weather History Graph

Daily Weather History Graph

Search for Another Location

Airport or City:

Trip Planner

Search our weather history database for the weather conditions in past years. The results will help you decide how hot, cold, wet, or windy it might be!

Date:

Astronomy

Jan. 30, 2014 Rise Set
Actual Time 6:46 AM PST 5:19 PM PST
Civil Twilight 6:20 AM PST 5:45 PM PST
Nautical Twilight 5:50 AM PST 6:15 PM PST
Astronomical Twilight 5:21 AM PST 6:44 PM PST
Moon 6:18 AM PST (1/30) 5:33 PM PST (1/30)
Length of Visible Light 11h 25m
Length of Day
10h 32m
Waning Crescent, 0% of the Moon is Illuminated
Jan 30
Waning Crescent
Jan 30
New
Feb 6
First Quarter
Feb 14
Full
Feb 22
Last Quarter

Hourly Weather History & Observations

Time (PST) Temp. Dew Point Humidity Pressure Visibility Wind Dir Wind Speed Gust Speed Precip Events Conditions
12:01 AM 55.0 °F 50.0 °F 83% 29.98 in 1.5 mi ESE 3.5 mph - N/A   Haze
12:54 AM 55.0 °F 50.0 °F 83% 29.97 in 1.5 mi Calm Calm - N/A   Haze
1:54 AM 54.0 °F 50.0 °F 86% 29.97 in 1.8 mi SW 3.5 mph - N/A   Overcast
2:02 AM 54.0 °F 50.0 °F 86% 29.97 in 2.0 mi SSW 3.5 mph - N/A   Overcast
2:25 AM 55.0 °F 48.9 °F 80% 29.97 in 2.0 mi Calm Calm - N/A   Haze
2:54 AM 55.0 °F 48.9 °F 80% 29.96 in 2.0 mi NE 3.5 mph - N/A   Haze
3:54 AM 55.0 °F 48.9 °F 80% 29.95 in 2.0 mi East 3.5 mph - N/A   Haze
4:54 AM 54.0 °F 48.0 °F 80% 29.95 in 2.5 mi NE 3.5 mph - N/A   Haze
5:33 AM 53.1 °F 48.0 °F 83% 29.95 in 2.5 mi NE 4.6 mph - N/A   Haze
5:54 AM 53.1 °F 46.9 °F 80% 29.95 in 2.5 mi NE 4.6 mph - N/A   Haze
6:47 AM 51.1 °F 46.9 °F 86% 29.95 in 6.0 mi North 5.8 mph - N/A   Mostly Cloudy
6:54 AM 51.1 °F 46.0 °F 83% 29.95 in 4.0 mi NNE 5.8 mph - N/A   Haze
7:51 AM 53.6 °F 46.4 °F 77% 29.95 in 1.8 mi Calm Calm - N/A   Haze
7:54 AM 53.1 °F 46.9 °F 80% 29.95 in 2.0 mi Calm Calm - N/A   Haze
8:13 AM 55.0 °F 48.0 °F 77% 29.95 in 2.0 mi NE 5.8 mph - N/A   Haze
8:31 AM 55.9 °F 48.0 °F 75% 29.95 in 3.0 mi ENE 5.8 mph - N/A   Overcast
8:54 AM 57.0 °F 48.0 °F 72% 29.95 in 3.0 mi NNE 6.9 mph - N/A   Haze
9:54 AM 57.9 °F 48.9 °F 72% 29.98 in 4.0 mi Calm Calm - N/A   Haze
10:54 AM 60.1 °F 51.1 °F 72% 29.98 in 5.0 mi South 5.8 mph - N/A   Haze
11:54 AM 59.0 °F 52.0 °F 78% 29.96 in 4.0 mi SSE 8.1 mph - 0.00 in   Drizzle
11:57 AM 59.0 °F 52.0 °F 78% 29.96 in 2.0 mi SSE 4.6 mph - 0.00 in   Drizzle
12:04 PM 57.9 °F 53.1 °F 84% 29.96 in 1.5 mi Calm Calm - 0.00 in   Drizzle
12:51 PM 60.8 °F 53.6 °F 77% 29.92 in 4.0 mi SSE 6.9 mph - 0.00 in   Haze
12:54 PM 61.0 °F 53.1 °F 75% 29.91 in 4.0 mi SE 5.8 mph - 0.00 in   Haze
1:54 PM 60.1 °F 54.0 °F 80% 29.91 in 3.0 mi SSW 6.9 mph - 0.00 in Rain Light Rain
2:54 PM 60.1 °F 55.0 °F 83% 29.89 in 7.0 mi South 4.6 mph - 0.00 in   Overcast
3:54 PM 60.1 °F 54.0 °F 80% 29.90 in 8.0 mi WSW 4.6 mph - N/A   Overcast
4:03 PM 60.1 °F 54.0 °F 80% 29.90 in 8.0 mi SSW 6.9 mph - N/A   Overcast
4:54 PM 59.0 °F 54.0 °F 83% 29.90 in 7.0 mi SSW 6.9 mph - N/A   Overcast
5:54 PM 59.0 °F 54.0 °F 83% 29.90 in 8.0 mi SSW 5.8 mph - N/A   Mostly Cloudy
6:54 PM 59.0 °F 53.1 °F 81% 29.90 in 8.0 mi South 4.6 mph - N/A   Mostly Cloudy
7:54 PM 57.9 °F 54.0 °F 87% 29.91 in 5.0 mi Calm Calm - 0.00 in Rain Light Rain
8:54 PM 59.0 °F 54.0 °F 83% 29.91 in 8.0 mi SSW 6.9 mph - 0.00 in   Mostly Cloudy
9:01 PM 59.0 °F 54.0 °F 83% 29.91 in 8.0 mi SSW 5.8 mph - N/A   Overcast
9:18 PM 59.0 °F 54.0 °F 83% 29.91 in 8.0 mi SSW 4.6 mph - N/A   Overcast
9:54 PM 57.9 °F 54.0 °F 87% 29.92 in 4.0 mi SSW 3.5 mph - 0.00 in Rain Light Rain
10:10 PM 57.9 °F 54.0 °F 87% 29.92 in 3.0 mi Calm Calm - 0.02 in Rain Light Rain
10:54 PM 57.9 °F 54.0 °F 87% 29.91 in 7.0 mi West 5.8 mph - 0.02 in   Overcast
11:54 PM 57.0 °F 53.1 °F 87% 29.93 in 3.0 mi West 6.9 mph - 0.01 in Rain Light Rain